User: anonymous   Login
Location: Christchurch
(43.5330°S, 172.6330°E)
Time: 13:59:30
(UTC+13:00)
Language:

Cosmos 2208 Rocket - Orbit

View from above orbital plane
View from above orbital plane
View from above satellite
View from above satellite

Ground track
Ground track

The orbit data is extracted from the following two-line orbital elements,

1 22081U 92053B   19318.89919171 +.00000048 +00000-0 +26639-4 0  9991
2 22081 074.0435 268.1993 0035515 019.7942 340.4578 14.33459104424552
Epoch (UTC): 14 November 2019 21:34:50
Eccentricity: 0.0035515
inclination: 74.0435°
perigee height: 755 km
apogee height: 805 km
right ascension of ascending node: 268.1993°
argument of perigee: 19.7942°
revolutions per day: 14.33459104
mean anomaly at epoch: 340.4578°
orbit number at epoch: 42455

The dashed part of the orbit path shows where the satellite is in the earth's shadow,  

DLR